Location: *
(51.2167°N, 10.0667°E)
Time: 21:35:38
(UTC+00:00)

Okean 1-7 - Pass Details

Date: 12 December 2019
Orbit: 591 x 619 km, 82.5° (Epoch: 17 January)

Event Time Altitude Azimuth Distance (km) Brightness Sun altitude
Rises 16:27:47 0° 159° (SSE) 2,858 6.5 -11.1°
Reaches altitude 10° 16:30:12 10° 148° (SSE) 1,964 5.5 -11.4°
Maximum altitude 16:33:55 28° 89° (E) 1,155 3.9 -11.9°
Enters shadow 16:37:03 13° 35° (NE) 1,775 4.9 -12.4°
